Flag Weather past 2 weeks in Everett, Washington, U.S.A.

Now
43 °F

Broken clouds.


Feels Like: 39 °F
Forecast: 42 / 50 °F
Wind: 6 mph from North

Location: Snohomish County Airport

Current Time: Nov 24, 2014 at 8:35:45 AM

Latest Report: Nov 24, 2014 at 7:53 AM


Visibility: 10 mi

Pressure: 30.32 "Hg

Humidity: 82%

Dew point: 38 °F

Location of EverettLocation

Historic Weather in Everett — Graph

°F

Everett temperature yesterday

Maximum temperature yesterday: 53 °F (at 1:53 PM)
Minimum temperature yesterday: 42 °F (at 7:53 PM)
Average temperature yesterday: 47 °F

Past Weeks' High & Low Weather Summary

 TemperatureHumidityPressure
High53 °F (Nov 23, 1:53 PM)96% (Nov 10, 5:04 AM)30.55 "Hg (Nov 10, 5:04 AM)
Low27 °F (Nov 15, 3:53 AM)19% (Nov 13, 9:53 AM)29.31 "Hg (Nov 21, 6:53 PM)
Average41 °F60%30.11 "Hg
* Reported Nov 9 6:04 AM — Nov 24 6:53 AM, Everett, Weather by CustomWeather, © 2014

Note: Actual official high and low records may vary slightly from our data, if they occured in-between our weather recording intervals... More about our weather records

Advertising

Everett weather history for previous 24 hours

 ConditionsComfort  
Time TempWeatherWind HumidityBarometerVisibility
6:53 AM
Nov 24
43 °FPassing clouds.8 mph82%30.33 "Hg10 mi
5:53 AM43 °FClear.7 mph82%30.33 "Hg10 mi
4:53 AM42 °FPassing clouds.8 mph89%30.35 "Hg10 mi
3:53 AM44 °FOvercast.3 mph82%30.36 "Hg10 mi
2:53 AM44 °FClear.8 mph85%30.36 "Hg10 mi
1:53 AM44 °FPassing clouds.8 mph85%30.36 "Hg10 mi
12:53 AM44 °FPassing clouds.7 mph85%30.36 "Hg10 mi
11:53 PM
Nov 23
42 °FPassing clouds.5 mph89%30.36 "Hg10 mi
10:53 PM45 °FClear.9 mph82%30.34 "Hg10 mi
9:53 PM46 °FPartly cloudy.9 mph79%30.32 "Hg10 mi
8:53 PM44 °FClear.7 mph79%30.29 "Hg10 mi
7:53 PM42 °FPassing clouds.6 mph82%30.28 "Hg10 mi
6:53 PM43 °FClear.No wind76%30.27 "Hg10 mi
5:53 PM48 °FClear.No wind66%30.23 "Hg10 mi
4:53 PM48 °FClear.5 mph68%30.21 "Hg10 mi
3:53 PM49 °FPassing clouds.6 mph71%30.19 "Hg10 mi
2:53 PM52 °FScattered clouds.3 mph61%30.17 "Hg10 mi
1:53 PM53 °FPartly sunny.5 mph61%30.15 "Hg10 mi
12:58 PM51 °FPartly sunny.No wind71%30.13 "Hg10 mi
11:53 AM51 °FScattered clouds.No wind69%30.12 "Hg10 mi
10:53 AM49 °FScattered clouds.6 mph84%30.11 "Hg10 mi
10:00 AM47 °FPartly sunny.5 mph86%30.08 "Hg10 mi
8:53 AM47 °FLight rain. Fog.14 mph90%30.09 "Hg4 mi
Weather by CustomWeather, © 2014

See weather overviewHow to use our weather pages